Other Public Products
Issued by NWS Grand Forks, ND

Home | Current Version | Previous Version | Text Only | Print | Product List | Glossary Off
Versions: 1 2 3 4 5 6 7 8 9 10 11 12 13 14 15 16 17 18 19 20 21 22 23 24 25 26 27 28 29 30 31 32 33 34 35 36 37 38 39 40 41 42 43 44 45 46 47 48 49 50

000
FPUS83 KFGF 192031
OPUFGF
PRAIRIE TO PINES WEATHER ROUNDUP
NATIONAL WEATHER SERVICE EASTERN NORTH DAKOTA/GRAND FORKS ND
300 PM CDT SAT AUG 19 2017

 **SATELLITE DATA USED TO AUGMENT SKY COVER AT AUTOMATED STATIONS**
 *****  WEATHER ACROSS EASTERN NORTH DAKOTA  *****

CITY           SKY/WX    TMP DP  RH WIND       PRES   REMARKS
GRAND FORKS    FAIR      88  59  37 S17       29.75F
GRAND FORKS AF FAIR      85  57  37 SW17      29.76F
GRAND CITY NWS NOT AVBL
BUXTON           N/A    N/A N/A N/A CALM        N/A
DEVILS LAKE    FAIR      83  60  45 S17G25    29.73F
FARGO          FAIR      81  61  50 S17G26    29.80F
WAHPETON ARPT  FAIR      79  59  50 S14       29.84F
$$

 *****  WEATHER ACROSS CENTRAL AND WESTERN NORTH DAKOTA  *****

CITY           SKY/WX    TMP DP  RH WIND       PRES   REMARKS
JAMESTOWN      FAIR      81  60  48 S20G28    29.77F
BISMARCK       FAIR      82  62  50 S9        29.74F
MINOT          FAIR      88  56  33 SW15G21   29.68S
MINOT AFB        N/A     89  53  29 W16       29.66S
GARRISON         N/A     85  59  41 W12G23    29.72S
WILLISTON      FAIR      83  52  34 NW22G28   29.77R
DICKINSON      FAIR      87  46  24 NW18G29   29.79S
HETTINGER      FAIR      84  44  24 NW13G25   29.84R
$$

 *****  OTHER OBSERVATIONS NORTHEAST NORTH DAKOTA  *****

CITY           SKY/WX    TMP DP  RH WIND       PRES   REMARKS
WALHALLA       FAIR      86  82  89 S15G24    29.69F HX 105
LANGDON        FAIR      84  59  42 S20G28    29.73F
CAVALIER       FAIR      84  59  42 S16G24    29.70F
GRAFTON        FAIR      84  61  45 S17       29.74F
CANDO          FAIR      84  63  48 S17G29    29.72F
FORT TOTTEN      N/A     83  59  43 S14       29.95S
ROLLA          FAIR      82  61  47 S15G25    29.69F
RUGBY          FAIR      84  63  48 S15       29.68S
 ***** THE ABOVE OBSERVATIONS ARE NON NWS ARE NOT QUALITY
        CONTROLLED AND MAY MIS-REPORT RAIN FOR SNOW...
$$

 *****  OTHER OBSERVATIONS SOUTHEAST NORTH DAKOTA *****

CITY           SKY/WX    TMP DP  RH WIND       PRES   REMARKS
COOPERSTOWN    FAIR      81  59  47 S20G26    29.77F
VALLEY CITY      N/A     81  59  47 S17G25    29.80F
OAKES          NOT AVBL
GWINNER        CLEAR     81  63  54 S12       29.81F
SHEYENNE NWR     N/A     83  61  46 S14       29.95S
BUFFALO          N/A     81  52  35 N13G24      N/A
WYNDMERE       NOT AVBL
 ***** THE ABOVE OBSERVATIONS ARE NON NWS ARE NOT QUALITY
       CONTROLLED AND MAY MIS-REPORT RAIN FOR SNOW...
$$

  *****  WEATHER ACROSS NORTHERN MINNESOTA  *****

CITY           SKY/WX    TMP DP  RH WIND       PRES   REMARKS
FLAG ISLAND    FAIR      81  63  54 S6        29.75F
WARROAD        FAIR      82  61  47 S7        29.77F
ROSEAU         FAIR      86  57  37 S13       29.76F
HALLOCK        FAIR      88  54  31 S16G22    29.72F
THF RVR FALLS  FAIR      83  56  39 S15G21    29.80F
HALSTAD          N/A     82  61  48 S16         N/A
FOSSTON        FAIR      82  54  36 S12       29.83F
BAUDETTE       FAIR      84  55  36 SW8       29.79F
WASKISH        PTSUNNY   82  55  39 SW9       29.82F
CROOKSTON      FAIR      84  54  34 SW16G25   29.78F
$$
  *****  WEATHER ACROSS CENTRAL AND WEST MINNESOTA  *****

CITY           SKY/WX    TMP DP  RH WIND       PRES   REMARKS
BEMIDJI        FAIR      81  52  36 SW8       29.84F
PARK RAPIDS    FAIR      80  59  48 S9        29.86F
WADENA         FAIR      79  57  47 S8        29.87F
DETROIT LAKES  FAIR      79  59  50 SW9       29.86F
MOORHEAD       FAIR      81  59  47 S16       29.82F
FERGUS FALLS   FAIR      79  63  57 S13       29.84F
ELBOW LAKE     FAIR      77  62  60 S12       29.87F HAZE
MORRIS MN      FAIR      79  63  57 S13G18    29.87F
STAPLES        FAIR      79  57  47 S12       29.88F
WHEATON          N/A    N/A N/A N/A SE9       29.86F
$$
  *****  WEATHER ELSEWHERE ACROSS MINNESOTA  *****

CITY           SKY/WX    TMP DP  RH WIND       PRES   REMARKS
DULUTH         FAIR      79  58  48 W14G20    29.88F
INTRNTL FALLS  FAIR      81  56  42 W8        29.81F
ELY            FAIR      79  52  38 W10       29.86S
CLOQUET        PTSUNNY   81  57  44 SW10      29.88F
BRAINERD       FAIR      77  58  51 SW8G18    29.89F
HIBBING        FAIR      78  55  44 W8        29.87F
ALEXANDRIA     FAIR      77  58  51 S10       29.91F
SAINT CLOUD    FAIR      78  61  55 S7        29.90F
MINNEAPOLIS    FAIR      78  58  49 SW6       29.92F
$$

  *****  WEATHER ACROSS SOUTH DAKOTA  *****

CITY           SKY/WX    TMP DP  RH WIND       PRES   REMARKS
SIOUX FALLS    FAIR      80  63  55 S12       29.90F
BROOKINGS      FAIR      77  61  57 SE13      29.90F
WATERTOWN      FAIR      77  58  51 S17       29.87F
HURON          FAIR      82  59  45 SE18G28   29.82F
SISSETON         N/A     80  65  59 S15       29.83F
ABERDEEN       FAIR      82  61  48 S17G25    29.81F
MITCHELL       FAIR      83  60  45 SE17      29.84F
PIERRE         FAIR      91  59  33 S14       29.76F HX  90
MOBRIDGE       FAIR      85  65  51 S12       29.76S
RAPID CITY     FAIR      93  42  17 N6        29.86S
$$

  *****  SOME WEATHER IN NEARBY STATES *****

CITY           SKY/WX    TMP DP  RH WIND       PRES   REMARKS
GLASGOW MT     FAIR      79  39  23 NW18G28   29.89R
GREAT FALLS MT FAIR      72  41  32 N9        29.99F
CHEYENNE WY    FAIR      87  26  11 W12G26    30.10F
SCOTTSBLUFF NE FAIR      94  41  16 NW13      29.93F HX  90
OMAHA NE       FAIR      87  57  35 SE5       29.93F
DES MOINES IA  FAIR      82  62  50 CALM      29.94F
DAVENPORT IA   FAIR      80  58  46 VRB5      29.98S
CHICAGO IL     FAIR      83  54  36 VRB3      29.94F
EAU CLAIRE WI  FAIR      79  56  45 SW13      29.92F
LA CROSSE WI   FAIR      83  58  42 VRB5      29.93F
$$

  *****  SOME NATIONAL WEATHER *****

CITY           SKY/WX    TMP DP  RH WIND       PRES   REMARKS
LA GUARDIA NY  PTSUNNY   88  63  43 W13       29.83S
RALEIGH NC     FAIR      92  67  43 VRB3      29.93F HX  95
ATLANTA GA     PTSUNNY   88  64  44 W6        30.00F
NEW ORLEANS LA FAIR      95  74  50 VRB6      29.95F HX 105
OKLAHOMA CITY  FAIR      95  68  41 SW5       29.96F HX  99
ALBUQUERQUE NM CLOUDY    88  38  17 SW14G20   30.15F
SALT LAKE CITY FAIR      93  34  12 VRB3      30.03F
LOS ANGELES CA FAIR      73  61  65 SW12      29.95F
BOISE ID       FAIR      83  41  22 NW13      30.02F
SEATTLE WA     FAIR      71  51  49 NW9       30.21F
$$

*** WEATHER ACROSS MANITOBA...SASKATCHEWAN AND ONTARIO ***
                ***ONTARIO***

CITY           SKY/WX    TMP DP  RH WIND       PRES   REMARKS
GERALDTON      MOSUNNY   75  52  43 W6        29.77S
THUNDER BAY    MOSUNNY   81  55  41 W9G20     29.79S
SIOUX LOOKOUT  PTSUNNY   77  57  50 SW2       29.78S
TORONTO        PTSUNNY   75  61  60 W18G24    29.83S
BIG TROUT LK   MOSUNNY   75  57  53 W14       29.63S
PICKLE LAKE    PTSUNNY   79  50  36 W10G17    29.73S
DRYDEN         MOSUNNY   82  52  34 SW13G21   29.78F
KENORA         PTSUNNY   79  55  44 SW12G18   29.78F
$$
                *** MANITOBA***

CITY           SKY/WX    TMP DP  RH WIND       PRES   REMARKS
BRANDON        MOSUNNY   90  59  35 S15G23    29.61F
DAUPHIN        SUNNY     88  57  35 W16G23    29.54S
ISLAND LAKE    MOSUNNY   82  54  36 SW2       29.60F
PILOT MOUND      N/A     84  55  37 S20G26      N/A
THE PAS        MOSUNNY   81  52  36 SE13      29.50F
THOMPSON       PTSUNNY   77  55  47 SE3       29.54F
WINNIPEG       MOSUNNY   88  59  37 S20G28    29.67F
LYNN LAKE      LGT RAIN  61  59  94 MISG      29.57S
CHURCHILL      FOG       52  52 100 N7        29.63S VSB 1
GILLAM         MOSUNNY   72  52  49 N3        29.59F
$$
                ***SASKATCHEWAN***

CITY           SKY/WX    TMP DP  RH WIND       PRES   REMARKS
ESTEVAN        MOSUNNY   81  54  39 W20G26    29.73R
KINDERSLEY     MOSUNNY   68  34  28 W21G31    29.91F
LLOYDMINSTER   MOSUNNY   64  43  45 W21G28    29.86S
PRINCE ALBERT  MOSUNNY   72  43  35 NW20G30   29.75R
REGINA         MOSUNNY   75  45  33 NW25G36   29.77R
YORKTON        SUNNY     77  55  47 NW17G28   29.64R



USA.gov is the U.S. government's official web portal to all federal, state and local government web resources and services.